Weather in Nikonovskaya

Russia / Vologda Oblast     59°48′55″N   37°48′16″E
temp.,
°C
wind,
m/s
gust,
m/s
humid.,
%
clouds,
%
prec.,
mm/h
press.,
hPa
HPBL,
m
18 may, wed
wed1800:00+4n38848 0.0 1012184
03:00+2nnw24915 0.0 101393
06:00+4nnw2583100 0.0 1013207
09:00+6nnw4577100 0.0 1013910
12:00+5nw5878100 0.2 10141063
15:00+7nw476399 0.5 10131478
18:00+6nnw377992 0.6 10131095
21:00+3wnw2595100 0.9 1012111
19 may, thu
thu1900:00+3n2497100 1.0 1011479
03:00+2n2599100 1.9 1011287
06:00+2nnw3698100 0.2 1012284
09:00+2nnw389788 0.4 1014530
12:00+7nnw4754100 0.1 10141948
15:00+8nnw6847100 0.3 10152013
18:00+7nnw595510 0.0 10161779
21:00+3nnw4108090 0.2 1018588
20 may, fri
fri2000:000nw39955 0.0 1019235
03:00−2nnw27976 0.0 1020171
06:00+1nnw368551 0.0 1021260
09:00+6n345720 0.0 10211146
12:00+8n454495 0.0 10201881
15:00+9n4540100 0.0 10192248
18:00+9n454734 0.0 10181713
21:00+3nnw38739 0.0 1019166
21 may, sat
sat2100:00+1n25875 0.0 101990
03:00−1n22825 0.0 101928
06:00+2nne25715 0.0 1019221
09:00+6n47515 0.0 10181515
12:00+8n56405 0.0 10171731
15:00+10n56345 0.0 10161928
18:00+9n46385 0.0 10151962
21:00+3n22621 0.0 101623
22 may, sun
sun2200:000nnw23710 0.0 101638
03:00−1nnw23770 0.0 101643
06:00+2n24660 0.0 1016188
09:00+7n35451 0.0 10151334
12:00+9n45371 0.0 10141626
15:00+11n45325 0.0 10141828
18:00+11n353619 0.0 10131893
21:00+4ne22595 0.0 101410